When you browse on this site, cookies collect data to enhance your experience and personalize the content and advertising you see.
Visit our Privacy Policy to learn more. By continuing to use the site, you agree to this use of cookies and data.
  • In France
  • List of Countries
  • For 7 days
  • Water Temperature
  • Satellite Maps
  • Weather Map
  • Weather Widgets
  • user-avatar
    Login

    Hourly Weather Galkojo

    Today, 19 June, Wednesday

    Time Temperature Precipitation Wind Pressure Humidity
    00:00 +32°C° 0 mm 9 mps 733 mmHg 49%
    01:00 +31°C° 0 mm 9 mps 733 mmHg 53%
    02:00 +29°C° 0 mm 10 mps 733 mmHg 57%
    03:00 +28°C° 0 mm 10 mps 733 mmHg 62%
    04:00 +28°C° 0 mm 10 mps 733 mmHg 64%
    05:00 +28°C° 0 mm 9 mps 733 mmHg 65%
    06:00 +27°C° 0 mm 9 mps 734 mmHg 67%
    07:00 +28°C° 0 mm 10 mps 734 mmHg 62%
    08:00 +31°C° 0 mm 10 mps 735 mmHg 56%
    09:00 +32°C° 0 mm 11 mps 735 mmHg 50%
    10:00 +34°C° 0 mm 11 mps 734 mmHg 45%
    11:00 +36°C° 0 mm 11 mps 734 mmHg 41%
    12:00 +38°C° 0 mm 12 mps 734 mmHg 36%
    13:00 +38°C° 0 mm 12 mps 733 mmHg 34%
    14:00 +39°C° 0 mm 12 mps 732 mmHg 32%
    15:00 +39°C° 0 mm 12 mps 731 mmHg 30%
    16:00 +39°C° 0 mm 11 mps 731 mmHg 31%
    17:00 +38°C° 0 mm 10 mps 731 mmHg 32%
    18:00 +37°C° 0 mm 9 mps 731 mmHg 34%
    19:00 +37°C° 0 mm 9 mps 732 mmHg 36%
    20:00 +35°C° 0 mm 8 mps 732 mmHg 38%
    21:00 +34°C° 0 mm 8 mps 733 mmHg 41%
    22:00 +34°C° 0 mm 9 mps 733 mmHg 45%
    23:00 +33°C° 0 mm 10 mps 733 mmHg 49%

    Tomorrow, 20 June, Thursday

    Time Temperature Precipitation Wind Pressure Humidity
    00:00 +32°C° 0 mm 10 mps 733 mmHg 53%
    01:00 +31°C° 0 mm 10 mps 732 mmHg 57%
    02:00 +29°C° 0 mm 10 mps 732 mmHg 60%
    03:00 +28°C° 0 mm 10 mps 732 mmHg 64%
    04:00 +28°C° 0 mm 10 mps 732 mmHg 63%
    05:00 +28°C° 0 mm 10 mps 733 mmHg 61%
    06:00 +28°C° 0 mm 9 mps 733 mmHg 60%
    07:00 +29°C° 0 mm 10 mps 734 mmHg 57%
    08:00 +31°C° 0 mm 11 mps 734 mmHg 54%
    09:00 +32°C° 0 mm 12 mps 735 mmHg 50%
    10:00 +33°C° 0 mm 12 mps 734 mmHg 46%
    11:00 +36°C° 0 mm 12 mps 733 mmHg 42%
    12:00 +37°C° 0 mm 11 mps 733 mmHg 37%
    13:00 +38°C° 0 mm 11 mps 732 mmHg 36%
    14:00 +38°C° 0 mm 11 mps 732 mmHg 34%
    15:00 +39°C° 0 mm 11 mps 731 mmHg 32%
    16:00 +38°C° 0 mm 10 mps 731 mmHg 33%
    17:00 +37°C° 0 mm 9 mps 731 mmHg 34%
    18:00 +37°C° 0 mm 8 mps 731 mmHg 35%
    19:00 +35°C° 0 mm 8 mps 732 mmHg 36%
    20:00 +34°C° 0 mm 8 mps 732 mmHg 37%
    21:00 +34°C° 0 mm 8 mps 733 mmHg 38%
    22:00 +33°C° 0 mm 9 mps 733 mmHg 42%
    23:00 +32°C° 0 mm 10 mps 733 mmHg 47%

    Day after tomorrow, 21 June, Friday

    Time Temperature Precipitation Wind Pressure Humidity
    00:00 +31°C° 0 mm 10 mps 733 mmHg 52%
    01:00 +29°C° 0 mm 10 mps 732 mmHg 55%
    02:00 +29°C° 0 mm 10 mps 732 mmHg 59%
    03:00 +28°C° 0 mm 10 mps 732 mmHg 63%
    04:00 +28°C° 0 mm 10 mps 733 mmHg 63%
    05:00 +27°C° 0 mm 10 mps 733 mmHg 64%
    06:00 +27°C° 0 mm 10 mps 734 mmHg 65%
    07:00 +28°C° 0 mm 10 mps 734 mmHg 61%
    08:00 +29°C° 0 mm 10 mps 735 mmHg 58%
    09:00 +31°C° 0 mm 11 mps 735 mmHg 54%
    10:00 +32°C° 0 mm 11 mps 734 mmHg 49%
    11:00 +34°C° 0 mm 11 mps 734 mmHg 44%
    12:00 +36°C° 0 mm 11 mps 733 mmHg 39%
    13:00 +37°C° 0 mm 10 mps 733 mmHg 38%
    14:00 +37°C° 0 mm 10 mps 732 mmHg 37%
    15:00 +37°C° 0 mm 9 mps 731 mmHg 36%
    16:00 +37°C° 0 mm 9 mps 731 mmHg 37%
    17:00 +35°C° 0 mm 9 mps 731 mmHg 38%
    18:00 +35°C° 0 mm 9 mps 732 mmHg 39%
    19:00 +34°C° 0 mm 9 mps 732 mmHg 41%
    20:00 +34°C° 0 mm 8 mps 732 mmHg 43%
    21:00 +33°C° 0 mm 8 mps 733 mmHg 45%
    22:00 +32°C° 0 mm 8 mps 733 mmHg 48%
    23:00 +31°C° 0 mm 9 mps 732 mmHg 52%

    22 June, Saturday

    Time Temperature Precipitation Wind Pressure Humidity
    00:00 +31°C° 0 mm 9 mps 732 mmHg 55%
    01:00 +29°C° 0 mm 9 mps 732 mmHg 57%
    02:00 +28°C° 0 mm 10 mps 732 mmHg 59%
    03:00 +28°C° 0 mm 10 mps 732 mmHg 61%
    04:00 +28°C° 0 mm 10 mps 732 mmHg 61%
    05:00 +28°C° 0 mm 9 mps 733 mmHg 60%
    06:00 +27°C° 0 mm 9 mps 734 mmHg 59%
    07:00 +28°C° 0 mm 9 mps 734 mmHg 57%
    08:00 +28°C° 0 mm 10 mps 734 mmHg 55%
    09:00 +29°C° 0 mm 10 mps 735 mmHg 53%
    10:00 +31°C° 0 mm 10 mps 734 mmHg 49%
    11:00 +33°C° 0 mm 10 mps 733 mmHg 44%
    12:00 +35°C° 0 mm 9 mps 733 mmHg 40%
    13:00 +35°C° 0 mm 9 mps 732 mmHg 39%
    14:00 +35°C° 0 mm 9 mps 731 mmHg 38%
    15:00 +37°C° 0 mm 9 mps 731 mmHg 37%
    16:00 +35°C° 0 mm 8 mps 731 mmHg 38%
    17:00 +35°C° 0 mm 8 mps 731 mmHg 38%
    18:00 +35°C° 0 mm 7 mps 731 mmHg 38%
    19:00 +34°C° 0 mm 7 mps 731 mmHg 39%
    20:00 +34°C° 0 mm 7 mps 732 mmHg 40%
    21:00 +34°C° 0 mm 7 mps 732 mmHg 41%
    22:00 +33°C° 0 mm 7 mps 732 mmHg 42%
    23:00 +33°C° 0 mm 8 mps 732 mmHg 44%

    23 June, Sunday

    Time Temperature Precipitation Wind Pressure Humidity
    00:00 +32°C° 0 mm 8 mps 732 mmHg 46%
    01:00 +31°C° 0 mm 8 mps 732 mmHg 51%
    02:00 +29°C° 0 mm 8 mps 731 mmHg 55%
    03:00 +28°C° 0 mm 8 mps 731 mmHg 60%
    04:00 +27°C° 0 mm 8 mps 732 mmHg 62%
    05:00 +27°C° 0 mm 7 mps 732 mmHg 64%
    06:00 +26°C° 0 mm 7 mps 732 mmHg 67%
    07:00 +28°C° 0 mm 8 mps 733 mmHg 60%
    08:00 +29°C° 0 mm 8 mps 733 mmHg 54%
    09:00 +32°C° 0 mm 9 mps 734 mmHg 47%
    10:00 +33°C° 0 mm 9 mps 733 mmHg 43%
    11:00 +35°C° 0 mm 9 mps 732 mmHg 38%
    12:00 +37°C° 0 mm 9 mps 732 mmHg 34%
    13:00 +38°C° 0 mm 9 mps 731 mmHg 32%
    14:00 +39°C° 0 mm 8 mps 731 mmHg 30%
    15:00 +39°C° 0 mm 8 mps 730 mmHg 28%
    16:00 +39°C° 0 mm 8 mps 730 mmHg 30%
    17:00 +38°C° 0 mm 7 mps 730 mmHg 31%
    18:00 +36°C° 0 mm 7 mps 730 mmHg 33%
    19:00 +35°C° 0 mm 6 mps 731 mmHg 34%
    20:00 +35°C° 0 mm 6 mps 731 mmHg 36%
    21:00 +34°C° 0 mm 5 mps 732 mmHg 38%
    22:00 +33°C° 0 mm 6 mps 732 mmHg 44%
    23:00 +32°C° 0 mm 7 mps 732 mmHg 49%

    24 June, Monday

    Time Temperature Precipitation Wind Pressure Humidity
    00:00 +31°C° 0 mm 8 mps 732 mmHg 55%
    01:00 +29°C° 0 mm 8 mps 731 mmHg 58%
    02:00 +28°C° 0 mm 8 mps 731 mmHg 61%
    03:00 +28°C° 0 mm 8 mps 731 mmHg 65%
    04:00 +27°C° 0 mm 8 mps 732 mmHg 66%
    05:00 +27°C° 0 mm 8 mps 732 mmHg 67%
    06:00 +26°C° 0 mm 8 mps 733 mmHg 68%
    07:00 +28°C° 0 mm 8 mps 733 mmHg 62%
    08:00 +29°C° 0 mm 9 mps 733 mmHg 56%
    09:00 +32°C° 0 mm 9 mps 734 mmHg 49%
    10:00 +34°C° 0 mm 9 mps 733 mmHg 44%
    11:00 +35°C° 0 mm 9 mps 733 mmHg 38%
    12:00 +38°C° 0 mm 9 mps 732 mmHg 32%
    13:00 +39°C° 0 mm 9 mps 732 mmHg 32%
    14:00 +39°C° 0 mm 9 mps 731 mmHg 31%
    15:00 +39°C° 0 mm 9 mps 730 mmHg 30%
    16:00 +39°C° 0 mm 8 mps 730 mmHg 31%
    17:00 +38°C° 0 mm 8 mps 730 mmHg 32%
    18:00 +38°C° 0 mm 7 mps 731 mmHg 33%
    19:00 +36°C° 0 mm 7 mps 731 mmHg 35%
    20:00 +35°C° 0 mm 7 mps 731 mmHg 37%
    21:00 +35°C° 0 mm 7 mps 732 mmHg 38%
    22:00 +34°C° 0 mm 8 mps 732 mmHg 43%
    23:00 +33°C° 0 mm 8 mps 732 mmHg 47%
    Show more